This demonstration page uses our WeatherBlox Daily Observations layout. Learn more.

Left ArrowRight Arrow

Hourly Observations for October 17, 2019

Temp ( °F °C ) Dew Point ( °F °C ) Humidity (%) Winds ( mph kmh ) Pressure ( in mb ) Visibility ( mi km ) Precip ( " mm )
12:53 am 00:53 Clear 53 11.7 28 -2.2 38 38 ESE 3 6 30.04 1017 10 16 0.00 0.00
1:53 am 01:53 Clear 50 10 27 -2.8 41 41 Calm 30.02 1017 10 16 0.00 0.00
2:53 am 02:53 Clear 46 7.8 27 -2.8 47 47 Calm 30.02 1017 10 16 0.00 0.00
3:53 am 03:53 Clear 45 7.2 28 -2.2 52 52 ENE 3 6 30.00 1016 10 16 0.00 0.00
4:53 am 04:53 Clear 44 6.7 27 -2.8 51 51 Calm 29.99 1016 10 16 0.00 0.00
5:53 am 05:53 Clear 44 6.7 28 -2.2 53 53 E 5 7 29.98 1015 10 16 0.00 0.00
6:53 am 06:53 Clear 42 5.6 28 -2.2 58 58 N 3 6 29.99 1016 10 16 0.00 0.00
7:53 am 07:53 Clear 41 5 30 -1.1 65 65 N 5 7 30.00 1016 10 16 0.00 0.00
8:53 am 08:53 Sunny 47 8.3 32 0 56 56 N 3 6 29.99 1016 10 16 0.00 0.00
9:53 am 09:53 Sunny 57 13.9 33 0.6 41 41 ESE 5 7 29.99 1016 10 16 0.00 0.00
10:53 am 10:53 Sunny 63 17.2 36 2.2 37 37 SE 3 6 29.96 1015 10 16 0.00 0.00
11:53 am 11:53 Sunny 69 20.6 39 3.9 33 33 VRB 3 6 29.94 1014 10 16 0.00 0.00
12:53 pm 12:53 Sunny 75 23.9 41 5 29 29 SSW 6 9 29.91 1013 10 16 0.00 0.00
1:53 pm 13:53 Sunny 78 25.6 40 4.4 26 26 S 7 11 29.87 1011 10 16 0.00 0.00
2:53 pm 14:53 Sunny 81 27.2 41 5 24 24 VRB 3 6 29.82 1010 10 16 0.00 0.00
3:53 pm 15:53 Sunny 82 27.8 38 3.3 21 21 VRB 6 9 29.79 1009 10 16 0.00 0.00
4:53 pm 16:53 Sunny 82 27.8 37 2.8 20 20 S 8 13 29.77 1008 10 16 0.00 0.00
5:53 pm 17:53 Sunny 83 28.3 34 1.1 17 17 SSW 13 20 29.75 1007 10 16 0.00 0.00
6:53 pm 18:53 Sunny 80 26.7 33 0.6 18 18 SSE 8 13 29.74 1007 10 16 0.00 0.00
7:53 pm 19:53 Clear 74 23.3 36 2.2 25 25 SE 9 15 29.75 1008 10 16 0.00 0.00
8:53 pm 20:53 Clear 70 21.1 37 2.8 30 30 SE 9 15 29.76 1008 10 16 0.00 0.00
9:53 pm 21:53 Clear 70 21.1 39 3.9 32 32 SSE 13 20 29.75 1008 10 16 0.00 0.00
10:53 pm 22:53 Clear 69 20.6 45 7.2 42 42 SSE 14 22 29.75 1008 10 16 0.00 0.00
11:53 pm 23:53 Clear 67 19.4 48 8.9 51 51 SSE 15 24 29.75 1007 10 16 0.00 0.00

Powered by AerisWeather